Location: Cabri�res
(43.7840°N, 5.4986°E)
Time: 21:20:47
(UTC+00:00)

STARLINK-1221 - Pass Details

Date: 09 April 2020
Orbit: 375 x 384 km, 53.0° (Epoch: 26 May)

Event Time Altitude Azimuth Distance (km) Brightness Sun altitude
Rises 20:01:59 0° 304° (NW) 2,268 8.5 -18.7°
Reaches altitude 10° 20:04:03 10° 303° (WNW) 1,410 7.0 -19.0°
Enters shadow 20:07:07 81° 251° (WSW) 393 2.8 -19.5°
